Regional Weather Roundup
Issued by NWS Cleveland, OH

Home | Current Version | Previous Version | Text Only | Print | Product List | Glossary On
Versions: 1 2 3 4 5 6 7 8 9 10 11 12 13 14 15 16 17 18 19 20 21 22 23 24 25 26 27 28 29 30 31 32 33 34 35 36 37 38 39 40 41 42 43 44 45 46 47 48 49 50
000
ASUS41 KCLE 281812
RWRCLE
OHIO REGIONAL WEATHER ROUNDUP
NATIONAL WEATHER SERVICE WILMINGTON, OH
200 PM EDT SAT MAY 28 2016

NOTE: "FAIR" INDICATES FEW OR NO CLOUDS BELOW 12,000 FEET WITH NO
SIGNIFICANT WEATHER AND/OR OBSTRUCTIONS TO VISIBILITY.

OHZ001>008-015>018-024>027-034-035-043-044-281900-
   NORTHWEST OHIO

CITY           SKY/WX    TMP DP  RH WIND       PRES   REMARKS
DEFIANCE       FAIR      86  60  41 S14G24    30.04F
FINDLAY        FAIR      85  61  44 SW15      30.04F
TOLEDO EXPRESS FAIR      88  62  41 S14       30.03F
TOLEDO EXEC    FAIR      88  62  41 SW14G21   30.04F
LIMA           FAIR      85  63  47 SW14      30.06F
$$

OHZ009>014-019>023-028>033-038-089-281900-
   NORTHEAST OHIO

CITY           SKY/WX    TMP DP  RH WIND       PRES   REMARKS
CLE-HOPKINS    FAIR      86  66  51 S12G18    30.10F
CLE-LAKEFRONT  FAIR      86  66  51 S8        30.06F
CUY CO. ARPT   PTSUNNY   88  68  51 SW12      30.09F HX  91
LORAIN-ELYRIA  FAIR      85  63  47 SW9       30.08F
ASHTABULA      PTSUNNY   86  64  47 S8        30.09F
AKRON-CANTON   FAIR      85  65  51 SW14      30.11F
WOOSTER        FAIR      85  67  54 VRB7      30.11F
MANSFIELD      FAIR      84  65  52 S6G20     30.10F
YOUNGSTOWN     FAIR      84  65  52 SW8       30.11F
$$

OHZ042-051>053-060>062-070>072-077>081-281900-
  SOUTHWEST OHIO

CITY           SKY/WX    TMP DP  RH WIND       PRES   REMARKS
CINC-COVINGTON PTSUNNY   81  67  62 S7        30.10F
CINC-LUNKEN    FAIR      81  70  69 S12       30.09F
HAMILTON       PTSUNNY   79  67  66 S7        30.10F
DAYTON         TSTM      69  66  90 SW15G25   30.13R FOG
WRIGHT-PAT AFB LGT RAIN  76  70  82 S15       30.10S
DAYTON GENERAL PTSUNNY   79  68  69 S8        30.10F
WILMINGTON     FAIR      80  68  66 SW14      30.11F
$$

OHZ036-037-039>041-045>050-054>059-063>069-073>076-082>088-281900-
  CENTRAL AND SOUTHEAST OHIO

CITY           SKY/WX    TMP DP  RH WIND       PRES   REMARKS
COLUMBUS       PTSUNNY   85  64  49 S12       30.08F
OSU AIRPORT    FAIR      86  66  51 S10       30.08F
BOLTON FIELD   CLOUDY    82  66  57 SW10G17   30.10F
RICKENBACK AFB FAIR      85  65  51 S5        30.08F
NEWARK         PTSUNNY   87  65  47 SW6       30.09F
MARION         FAIR      85  63  47 SW9       30.08F
LANCASTER      FAIR      84  66  54 S7        30.11F
ZANESVILLE     FAIR      85  67  54 VRB5      30.12F
NEW PHILLY     PTSUNNY   86  65  49 CALM      30.12F
$$




USA.gov is the U.S. government's official web portal to all federal, state and local government web resources and services.